STARLINK-11581, 63144

Orbit data source: Space-Track

STARLINK-11581, 63144 is a payload satellite owned by SpaceX/Seattle (US) in LEO that was launched on Mon, 03 Mar 2025 UTC via an FALCON 9 launch vehicle from the Air Force Eastern Test Range (AFETR). Payload-class satellites include a variety of spacecraft equipped with specific instruments for various scientific and technological missions. These include communications satellites like Starlink; space stations such as the ISS; scientific satellites like the Hubble; Earth observation satellites from companies like Planet Labs, Umbra, and HawkEye 360; GPS; miniature CubeSats for education and research; and military/defense satellites.

Loading next visibility...
Identifier
63144, 2025-043N
Orbit
LEO
Country
Flag of USUS
Related business
Manufacturer
SpaceX/Seattle
Mission
Operational Commercial Communications
Bus & Motor
STARLINK V2MD, Unknown motor
Mass
960 kg wet, ~910 kg dry
Launch date (UTC)
2025-03-03 (8 months ago)
Launch vehicle
FALCON 9
Launch site
Air Force Eastern Test Range (AFETR)
Object type
Payload
Rocket body
Debris
Shape & HBR
Box + 2 Pan, 18.1 m
Radar Cross Section
36.964 m², Large (>1 m²)

Expand to show TLE details & history
Last TLE update: 13 hours ago

TLE from 13 hours ago
0 STARLINK-11581
1 63144U 25043N   25306.40825869  .00189496  00000-0  14443-2 0  9995
2 63144  42.9978 297.9620 0000541 308.5006  51.5813 15.70881637 39456
Epoch: 2025-11-02T09:47Z
TLE epoch observation values (Epoch: 2025-11-02T09:47:53.550Z)
Latitude
-0.00004°
Longitude
109.06442°
Altitude
355.921 km
Speed
7.698 km/s
True Right ascension
19h 51m 50s
True Declination
0° 00' 00"
Sunlit
Object was in daylight at epoch
Visualization orbit readout
Latitude
Unknown
Longitude
Unknown
Altitude
Unknown
Speed
Unknown
Apparent Right ascension
Unknown
Apparent Declination
Unknown
Sunlit
N/A
Visualization observer readout
Local Sidereal Time
18:35:27
Azimuth
Unknown
Elevation
Unknown
Doppler factor
Unknown
Orbital elements
Apogee altitude
358.722 km
Perigee altitude
357.994 km
Semi-major axis
6,736.495 km
Eccentricity
0.00005
Inclination
42.9978°
RAAN
297.962°
Arg. of periapsis
308.5006°
True anomaly
51.58616°
Mean anomaly
51.5813°
Eccentric anomaly
51.58373°
Mean motion
3.92547 °/min
Orbital period
91.71 mins
BSTAR
0.0014443
Loading maneuver chart data...
Computing Atmospheric mass density...
Loading historical data...
Loading historical data...
Loading historical data...
Loading historical data...
Loading historical data...
Loading historical data...
Loading historical data...

Documentation

Showing up to 5 results
|